GFSNE_500_rhum_057.txt.gz
RH
70 71 70 59 38 20 10 7 10 10 10 14 34 51 52 52 51 41 33 27 20 13 11 9 7 6 7 7 9 9 8 5 4 3 7 11 14 13
86 81 62 38 13 8 8 12 13 14 13 34 48 58 56 48 40 27 20 24 20 18 22 20 19 17 16 15 14 14 10 9 7 5 3 4 8 12
85 63 42 15 8 9 14 15 20 40 46 44 53 52 42 25 26 27 26 25 24 22 23 22 21 20 19 18 18 16 14 13 11 9 6 4 3 5
63 40 16 8 9 15 16 20 48 58 63 49 53 29 31 26 23 21 22 24 24 25 24 22 20 18 17 16 15 15 15 16 16 13 11 7 5 3
40 14 8 10 16 16 20 44 65 72 67 54 29 31 26 24 22 22 25 26 24 28 32 33 38 38 34 29 24 21 16 13 15 16 14 12 8 5
14 8 10 16 18 22 46 75 76 73 66 35 34 29 25 22 22 24 24 31 45 55 60 59 62 58 56 51 42 34 32 26 14 14 16 16 14 9
9 10 16 18 21 37 77 89 82 78 46 39 34 29 23 22 23 26 37 48 72 81 64 69 75 65 57 42 38 33 32 35 35 18 15 18 18 15
12 19 20 21 29 66 98 98 89 63 42 35 32 27 21 22 26 39 53 67 74 95 66 84 57 37 27 19 20 23 34 36 46 36 19 19 22 23
21 22 23 28 52 89 100 99 81 51 42 38 32 25 22 25 34 57 72 74 83 70 66 69 25 20 20 21 22 24 26 38 62 53 30 21 25 34
25 25 30 35 90 100 100 100 72 56 50 44 33 24 22 29 42 64 75 87 72 69 55 22 20 25 29 29 30 34 41 69 74 67 41 25 28 41
28 30 37 44 93 100 100 97 74 63 56 43 34 24 23 33 54 75 82 84 67 78 43 22 27 39 51 60 60 58 71 90 92 76 59 29 35 55
34 40 44 62 93 100 100 95 78 68 57 48 36 24 24 39 66 81 85 90 63 85 37 28 37 64 87 96 96 92 85 86 89 84 66 32 44 66
46 57 52 76 99 100 100 97 77 68 62 51 39 25 27 43 76 91 92 91 67 90 55 32 56 82 100 100 100 100 100 91 84 83 65 37 53 77
54 66 62 70 98 100 100 98 82 75 67 59 44 28 28 40 85 96 98 94 66 100 84 47 49 88 99 100 100 100 100 100 100 72 53 41 60 83
62 68 70 77 95 100 100 100 97 90 81 67 50 34 28 34 87 100 97 99 60 100 94 78 73 82 97 100 100 100 100 100 99 85 57 41 64 86
79 74 74 76 90 100 100 100 100 100 95 75 56 43 28 32 72 100 98 100 54 92 100 96 97 71 97 100 100 100 100 100 95 65 39 36 58 82
90 91 88 92 90 97 100 100 100 100 98 87 74 58 34 32 48 100 100 100 71 63 100 100 100 98 55 84 100 100 100 85 72 71 38 31 43 68
96 99 93 97 100 100 100 100 100 100 100 100 86 83 53 32 35 89 100 100 96 48 93 100 100 100 98 55 60 97 88 55 46 51 50 33 28 41
97 100 92 96 100 100 100 100 100 100 100 100 100 99 72 40 32 55 100 100 100 68 52 96 100 100 100 98 100 84 73 62 36 32 36 37 33 26
94 100 99 95 100 100 96 100 100 100 99 100 100 96 87 56 34 33 86 100 100 98 63 60 92 100 100 100 100 100 100 96 70 39 26 28 29 25
94 100 100 100 98 98 97 100 100 100 100 100 97 94 89 67 52 31 38 100 100 100 98 72 67 84 99 100 100 100 100 100 100 78 43 28 25 24
100 100 100 100 100 100 100 100 100 100 100 100 96 92 90 86 71 43 31 43 100 100 100 100 81 79 78 91 99 100 100 100 100 100 93 80 60 46
100 100 100 100 100 100 98 96 100 100 100 100 99 95 93 92 82 61 36 32 48 100 100 100 100 100 86 88 94 96 87 80 86 100 100 100 100 100

GFSNE_500_rhum_063.txt.gz
RH
92 86 84 87 90 92 94 100 98 70 31 8 6 8 10 14 18 19 23 34 47 55 52 46 35 26 19 16 14 16 18 19 13 8 6 5 4 3
94 87 89 96 100 100 98 69 14 6 6 7 8 12 18 20 22 36 53 61 55 48 37 25 22 21 19 17 16 15 13 12 12 14 11 7 6 5
99 98 100 100 100 79 31 8 7 8 9 11 18 21 22 27 47 65 69 60 40 27 26 24 23 21 19 17 16 16 16 17 16 11 10 11 10 7
100 100 100 94 54 15 8 8 9 12 15 22 24 25 43 78 78 76 75 44 33 30 26 24 23 19 16 16 17 17 18 18 18 18 17 9 8 10
100 98 85 41 12 8 8 12 16 20 26 26 28 43 90 98 94 77 45 38 34 28 25 21 17 18 19 20 20 20 20 21 20 20 19 17 14 10
91 68 26 11 10 9 13 19 22 30 30 32 46 77 98 99 83 56 45 40 32 25 20 18 19 24 33 42 49 48 43 34 29 26 20 17 17 15
51 20 13 11 10 13 20 23 30 33 36 43 87 100 100 92 69 52 44 36 28 22 19 25 23 36 47 52 56 55 52 50 47 44 37 22 16 15
22 16 14 14 15 20 26 31 36 38 44 69 100 100 100 82 59 52 41 33 25 20 19 47 34 59 61 53 43 43 47 43 38 41 43 38 25 15
17 16 18 17 20 26 35 40 42 48 52 87 100 100 96 69 62 53 41 32 23 21 22 67 52 66 55 47 45 47 26 18 18 17 17 18 21 24
19 20 20 19 24 34 43 45 55 58 63 92 98 94 84 76 69 55 41 28 22 24 27 74 67 66 52 53 47 25 19 19 18 17 17 16 16 16
25 24 21 20 27 42 49 54 68 66 74 94 93 94 89 84 75 56 42 26 25 35 41 77 68 66 58 57 31 21 26 28 27 26 28 22 17 15
30 24 20 21 32 49 51 63 73 71 83 96 97 96 91 91 78 60 44 27 26 48 49 86 77 56 74 56 26 37 46 49 54 51 36 28 23 19
28 20 19 23 37 50 52 75 77 76 83 100 99 96 99 96 84 69 49 29 28 58 66 94 88 59 75 61 43 59 58 89 100 94 81 53 39 31
22 17 20 25 39 48 51 77 88 84 83 94 97 100 100 94 91 80 68 36 28 65 88 91 86 58 86 70 57 68 66 92 100 100 100 100 96 80
17 17 22 30 44 48 48 80 100 94 95 98 98 100 95 89 96 95 86 49 30 61 98 96 82 61 88 84 65 78 68 94 100 100 100 100 100 100
18 21 27 37 52 48 47 80 100 100 100 100 98 100 95 90 95 94 89 59 31 48 92 100 84 63 95 94 66 92 91 100 100 100 93 100 100 100
27 29 32 36 55 51 50 89 100 100 97 97 97 100 98 93 99 91 86 62 32 43 95 97 90 60 94 99 64 86 98 97 100 100 100 100 96 86
29 28 31 34 50 53 59 98 100 100 100 100 99 99 98 96 98 89 86 68 37 34 91 94 93 65 98 98 75 62 96 93 100 100 100 100 87 78
30 27 29 33 45 50 61 99 100 100 100 100 100 99 96 93 92 92 86 74 46 30 73 96 97 74 93 99 91 81 73 86 99 100 100 86 76 63
29 27 26 34 44 48 66 100 100 100 100 100 100 100 96 93 90 92 86 81 58 32 47 98 100 89 90 100 100 100 100 100 100 100 86 70 59 55
27 26 27 34 41 48 78 100 100 100 100 100 100 100 100 97 96 95 89 84 66 42 32 84 100 100 90 97 98 100 100 100 100 100 72 52 52 48
27 27 33 42 43 60 93 100 100 100 100 100 100 100 100 100 100 96 93 84 71 57 33 48 100 100 100 100 100 100 100 100 100 100 88 53 41 46
28 29 38 45 60 93 100 100 100 100 100 100 100 100 100 100 100 98 94 89 77 67 46 32 77 100 100 100 100 100 100 100 100 100 100 86 48 37

GFSNE_500_rhum_069.txt.gz
RH
51 70 78 81 85 71 34 15 27 16 9 16 12 9 12 13 11 12 15 18 20 22 25 24 23 24 26 31 32 27 24 19 17 17 16 12 9 8
76 83 87 74 45 10 15 33 22 18 19 25 18 18 17 12 13 17 22 26 30 29 29 36 49 67 74 70 60 47 37 31 25 21 18 16 11 9
85 84 59 23 7 10 13 15 26 37 36 30 24 22 14 14 17 21 27 33 33 47 62 71 77 81 75 62 46 35 26 22 21 20 20 18 15 12
78 42 9 6 6 8 18 34 47 43 43 30 26 19 15 18 22 30 38 39 47 63 73 71 74 62 44 39 34 32 29 27 25 23 22 21 19 16
29 7 6 6 8 16 42 50 45 48 39 31 24 19 16 22 31 40 44 47 72 82 77 67 50 47 45 39 33 28 25 23 20 18 16 14 12 12
8 5 6 7 13 33 51 46 50 50 37 29 23 18 19 28 40 44 51 67 91 93 71 66 58 48 41 34 28 23 21 18 17 15 15 15 15 12
6 6 7 12 24 40 44 50 60 48 38 28 20 18 24 38 45 52 53 81 100 90 80 76 55 42 35 28 24 21 20 18 18 18 21 25 28 30
6 7 9 14 29 41 53 62 54 47 35 24 18 20 31 47 50 58 63 87 97 96 82 78 50 40 32 25 23 22 22 24 26 26 26 29 34 35
8 8 10 22 40 53 59 57 52 41 27 20 19 24 37 51 58 64 70 85 98 91 71 74 55 37 28 23 24 28 39 46 41 34 34 34 33 31
9 10 16 27 44 53 55 44 37 28 21 19 22 32 45 55 66 70 79 90 98 96 72 70 57 36 26 24 33 46 63 57 49 41 34 34 36 36
10 15 28 38 45 43 36 29 23 21 20 22 27 40 52 64 78 77 83 87 89 97 80 78 66 39 28 34 52 64 63 55 42 44 43 36 31 28
11 21 37 40 33 25 21 21 21 24 24 27 36 49 56 72 92 89 88 85 86 90 82 81 72 40 45 59 68 64 63 46 58 43 30 30 28 25
17 20 19 19 18 20 22 23 27 28 29 32 39 60 59 78 99 100 94 86 86 89 80 74 72 39 32 89 89 73 59 58 64 42 44 45 44 43
23 17 14 17 20 26 26 32 42 33 30 29 38 65 62 82 99 100 96 92 87 87 87 77 75 40 34 85 94 83 60 74 64 57 61 57 58 72
17 14 15 22 26 25 26 44 52 44 34 30 39 64 63 94 100 100 98 100 98 89 84 81 75 40 36 89 93 75 74 79 62 71 67 65 62 70
15 15 23 22 13 21 100 96 76 82 53 33 39 61 76 100 100 100 100 100 100 92 78 74 68 38 44 85 90 73 85 91 57 72 78 75 80 86
14 18 20 10 14 60 100 100 96 80 51 40 39 60 80 100 100 100 100 100 100 100 94 82 66 38 51 90 87 78 92 82 52 79 89 89 92 94
14 17 12 13 23 93 100 96 82 66 61 43 49 65 93 100 100 100 100 100 100 96 94 89 74 43 44 94 87 87 94 73 69 86 84 95 96 100
14 12 12 16 23 30 41 47 38 36 40 44 64 77 99 100 100 100 100 100 100 95 95 88 74 46 47 98 92 96 99 92 82 84 97 99 100 97
13 12 13 16 18 22 27 28 28 31 34 63 74 93 100 100 100 100 100 100 100 94 93 87 74 48 41 100 95 100 100 99 94 92 99 99 100 85
11 12 14 15 16 18 19 23 28 32 42 66 82 100 100 100 100 100 100 100 100 97 94 88 76 59 37 99 98 96 100 100 100 100 100 100 94 72
10 10 12 17 19 19 20 22 27 34 51 67 97 100 100 100 100 100 100 100 100 98 96 91 83 70 37 82 100 100 100 100 100 100 100 100 76 64
10 10 10 14 22 24 25 25 33 47 56 75 100 100 100 100 100 99 100 100 100 99 98 96 91 76 52 42 99 100 100 100 100 100 100 100 88 58

GFSNE_500_rhum_075.txt.gz
RH
98 42 40 53 43 38 67 72 67 53 42 27 17 13 12 10 8 7 9 16 21 26 30 27 20 14 14 19 25 28 28 27 25 24 22 20 17 12
94 25 42 47 38 68 76 71 58 45 35 20 18 15 10 9 11 15 22 31 35 40 35 29 18 14 21 30 33 33 31 31 29 27 24 22 21 19
49 39 53 41 72 79 73 64 47 26 23 26 18 10 7 13 18 25 36 39 41 37 30 22 17 18 34 37 36 39 44 45 40 34 28 23 22 20
52 55 43 74 76 76 66 47 28 21 22 22 14 7 11 17 22 26 31 35 31 26 22 20 18 29 42 40 46 57 59 51 37 31 30 25 22 22
53 44 80 80 79 66 47 32 23 23 19 10 8 10 16 22 23 22 21 20 20 21 22 22 23 39 46 44 54 65 58 47 41 41 39 37 32 28
48 82 82 83 66 49 32 23 23 22 12 9 11 15 22 24 19 18 19 20 21 22 24 26 33 48 53 54 58 60 56 53 43 36 34 33 32 30
82 84 79 66 56 40 25 23 18 12 10 14 17 16 19 16 16 19 22 25 24 29 35 36 51 55 62 60 59 53 55 52 39 32 29 28 25 24
83 76 68 62 54 43 39 31 20 10 9 14 14 17 16 18 24 25 27 27 28 44 40 50 71 67 68 64 60 56 54 47 39 28 26 25 24 23
72 66 64 58 45 34 30 21 15 9 7 8 10 14 15 21 26 27 29 29 32 42 53 64 90 77 76 72 61 60 61 52 38 26 26 28 27 26
64 65 62 54 42 33 26 17 10 10 11 10 12 13 17 23 25 26 28 29 32 47 64 73 98 84 83 73 70 65 59 50 32 27 34 38 40 37
69 64 54 50 40 28 19 12 9 8 11 11 11 12 19 20 28 48 46 31 31 54 76 84 100 93 90 79 77 64 56 49 30 35 51 54 52 47
67 56 52 48 38 24 14 11 8 8 11 10 7 14 18 33 81 96 72 36 32 58 88 92 100 97 88 89 80 71 54 45 29 49 66 62 54 47
63 56 55 44 34 21 14 10 8 9 11 6 11 15 18 74 96 99 93 52 38 61 92 95 100 99 87 85 81 70 55 37 33 65 74 64 53 45
64 62 52 39 25 17 12 9 9 11 8 7 11 14 74 100 100 99 80 50 46 68 100 100 100 98 89 86 75 70 54 32 38 72 71 60 56 62
70 59 47 32 22 14 10 10 11 13 7 8 10 18 64 100 100 99 78 50 49 77 100 100 100 100 89 85 74 69 53 31 52 68 66 68 71 63
69 56 40 28 18 13 12 12 15 12 7 8 11 18 43 70 98 86 38 44 56 88 100 100 100 96 91 87 74 66 47 33 69 70 69 75 70 42
73 57 37 20 18 20 21 19 18 11 9 10 11 18 32 47 56 33 41 54 71 96 100 99 100 96 89 86 81 64 39 47 78 72 74 70 46 58
64 41 23 23 26 28 24 24 18 11 11 11 13 17 24 31 32 29 39 69 90 100 100 100 100 93 86 85 78 62 39 61 79 78 77 72 63 67
38 24 25 27 32 29 27 25 17 12 15 13 13 17 19 22 27 30 50 81 98 100 100 99 100 98 91 86 77 60 40 76 84 85 83 81 85 87
26 28 29 34 34 30 29 23 16 14 16 17 19 25 25 24 27 33 64 91 100 100 100 100 100 100 94 90 81 62 41 81 90 93 95 92 95 97
28 35 42 34 32 30 25 20 16 16 17 18 22 31 37 31 37 53 84 97 100 100 100 100 100 100 96 94 84 66 45 81 94 93 94 95 99 94
39 41 35 35 33 26 24 20 17 19 20 25 32 44 58 63 69 84 95 100 100 100 100 100 100 100 97 96 86 72 43 79 96 95 99 99 100 90
35 35 37 31 28 28 28 24 21 23 25 32 46 86 100 92 92 100 100 100 100 100 100 100 100 100 100 99 90 76 47 66 100 100 100 98 100 93